Back to catalog

INTELSAT 33E DEB

AliveGEO
NORAD 64410·DEBRIS· XX

Launched Aug 24, 2016 from Guiana Space Centre

Loading…

TLE

FreshSource: Space-Track

Epoch: Sep 13, 2026, 22:48 UTC

1 64410U 16053AQ  26256.95007202 -.00000241  00000-0  00000-0 0  9994
2 64410   1.6713  71.2649 0065301  11.6941 349.2688  0.99988351  6773

Track INTELSAT 33E DEB in real time with AllMySat

Download on the App Store